Date String (YYYY-MM-DD hh:mm:ss) UTC,Instrument flags,Ambient pressure (hPa),Sample flow (lpm),Bypass flow (lpm),Sample temperature (°C),Ambient temperature (°C),ASC tube jacket temperature (°C),LED temperature (°C),Box temperature (°C),Sample RH (%),Span deviation,Mass concentration (μg/m³),Mass concentration (μg/m³),Mass concentration (μg/m³)
DateTimeUTC,F1_M11,P_M11,Q1_M11,Q2_M11,T1_M11,T2_M11,T3_M11,T4_M11,T5_M11,U1_M11,ZSPAN_M11,X2_M11,X0_M11,X1_M11
2022-06-14 11:00:00,,0818.9,5.00,0.00,29.3,28.4,00.0,38.4,31.1,17.2,0003.6,0013.53,0040.39,0005.24
2022-06-14 11:01:00,,0818.9,5.00,0.00,29.3,28.3,00.0,38.4,31.1,17.2,0002.8,0013.52,0040.77,0005.24
2022-06-14 11:02:00,,0818.9,5.02,0.00,29.3,28.3,00.0,38.4,31.1,17.2,0003.2,0013.55,0041.49,0005.24
2022-06-14 11:03:00,,0818.9,5.01,0.00,29.3,28.3,00.0,38.3,31.1,17.2,0003.7,0013.55,0042.09,0005.22
2022-06-14 11:04:00,,0818.9,5.00,0.00,29.3,28.3,00.0,38.3,31.1,17.3,0003.0,0013.54,0041.81,0005.22
2022-06-14 11:05:00,,0818.9,4.98,0.00,29.3,28.3,00.0,38.3,31.0,17.3,0002.8,0013.47,0040.88,0005.19
2022-06-14 11:06:00,,0819.0,4.99,0.00,29.3,28.3,00.0,38.3,31.0,17.2,0003.2,0013.49,0041.59,0005.19
2022-06-14 11:07:00,,0819.0,4.99,0.00,29.3,28.3,00.0,38.3,31.0,17.2,0003.8,0013.59,0042.49,0005.17
2022-06-14 11:08:00,,0819.0,5.00,0.00,29.2,28.2,00.0,38.3,31.0,17.2,0004.2,0013.52,0041.19,0005.13
2022-06-14 11:09:00,,0819.0,5.00,0.00,29.2,28.2,00.0,38.3,31.0,17.2,0004.3,0013.33,0040.42,0005.11
2022-06-14 11:10:00,,0819.0,5.00,0.00,29.2,28.2,00.0,38.3,31.0,17.2,0004.7,0013.22,0040.18,0005.09
2022-06-14 11:11:00,,0819.0,5.00,0.00,29.2,28.2,00.0,38.3,31.0,17.2,0005.3,0013.05,0041.27,0005.06
2022-06-14 11:12:00,,0819.0,5.01,0.00,29.2,28.2,00.0,38.3,31.0,17.2,0006.1,0013.00,0040.73,0005.04
2022-06-14 11:13:00,,0819.0,5.00,0.00,29.2,28.2,00.0,38.2,31.0,17.3,0005.3,0012.96,0040.05,0005.04
2022-06-14 11:14:00,,0819.0,5.00,0.00,29.2,28.1,00.0,38.2,30.9,17.3,0004.0,0012.99,0040.40,0005.04
2022-06-14 11:15:00,,0819.1,5.01,0.00,29.1,28.1,00.0,38.2,30.9,17.3,0004.0,0012.97,0039.99,0005.01
2022-06-14 11:16:00,,0819.1,5.00,0.00,29.1,28.1,00.0,38.2,30.9,17.3,0005.2,0013.05,0040.42,0004.99
2022-06-14 11:17:00,,0819.1,5.01,0.00,29.1,28.1,00.0,38.2,30.9,17.3,0004.7,0013.02,0040.42,0004.98
2022-06-14 11:18:00,,0819.1,4.99,0.00,29.1,28.1,00.0,38.2,30.9,17.3,0003.9,0012.92,0040.49,0004.98
2022-06-14 11:19:00,,0819.1,4.99,0.00,29.1,28.1,00.0,38.2,30.9,17.3,0002.2,0012.87,0040.54,0005.00
2022-06-14 11:20:00,,0819.1,5.01,0.00,29.1,28.1,00.0,38.2,30.8,17.3,0002.6,0012.92,0041.28,0005.00
2022-06-14 11:21:00,,0819.1,5.00,0.00,29.1,28.1,00.0,38.1,30.8,17.3,0001.7,0012.93,0041.65,0004.99
2022-06-14 11:22:00,,0819.1,5.00,0.00,29.1,28.1,00.0,38.1,30.8,17.3,0001.6,0012.97,0040.17,0004.99
2022-06-14 11:23:00,,0819.1,5.01,0.00,29.0,28.0,00.0,38.1,30.8,17.4,0001.9,0013.04,0040.43,0004.97
2022-06-14 11:24:00,,0819.3,5.01,0.00,29.0,28.0,00.0,38.1,30.8,17.4,0002.4,0013.15,0041.49,0004.97
2022-06-14 11:25:00,,0819.3,4.99,0.00,29.0,28.0,00.0,38.1,30.8,17.3,0001.4,0013.10,0041.13,0004.96
2022-06-14 11:26:00,,0819.3,5.00,0.00,29.0,28.0,00.0,38.1,30.8,17.3,0002.6,0012.99,0040.92,0004.95
2022-06-14 11:27:00,,0819.3,5.00,0.00,29.0,28.0,00.0,38.1,30.8,17.3,0001.8,0012.79,0040.36,0004.94
2022-06-14 11:28:00,,0819.3,5.01,0.00,29.0,28.0,00.0,38.1,30.8,17.3,0001.0,0012.62,0038.95,0004.92
2022-06-14 11:29:00,,0819.3,5.00,0.00,29.0,28.0,00.0,38.0,30.7,17.4,0000.6,0012.59,0037.58,0004.90
2022-06-14 11:30:00,,0819.3,5.00,0.00,29.0,28.0,00.0,38.0,30.7,17.4,0000.6,0012.50,0038.29,0004.88
2022-06-14 11:31:00,,0819.4,5.01,0.00,29.0,27.9,00.0,38.0,30.7,17.4,-000.5,0012.45,0039.38,0004.85
2022-06-14 11:32:00,,0819.4,4.99,0.00,29.0,27.9,00.0,38.0,30.7,17.4,-000.7,0012.49,0039.34,0004.84
2022-06-14 11:33:00,,0819.5,5.00,0.00,28.9,27.9,00.0,38.0,30.7,17.4,0000.3,0012.40,0039.74,0004.82
2022-06-14 11:34:00,,0819.5,5.00,0.00,28.9,27.9,00.0,38.0,30.7,17.4,0000.4,0012.28,0039.24,0004.79
2022-06-14 11:35:00,,0819.6,5.01,0.00,28.9,27.9,00.0,38.0,30.7,17.4,0000.4,0012.00,0038.56,0004.73
2022-06-14 11:36:00,,0819.6,5.00,0.00,28.9,27.9,00.0,38.0,30.7,17.4,0000.2,0012.06,0037.99,0004.70
2022-06-14 11:37:00,,0819.7,5.01,0.00,28.9,27.9,00.0,38.0,30.7,17.4,0000.9,0012.17,0038.06,0004.68
2022-06-14 11:38:00,,0819.6,4.99,0.00,28.9,27.9,00.0,38.0,30.7,17.5,0001.2,0012.28,0039.64,0004.68
2022-06-14 11:39:00,,0819.5,5.00,0.00,28.9,27.9,00.0,37.9,30.7,17.5,0003.4,0012.56,0041.53,0004.67
2022-06-14 11:40:00,,0819.5,5.00,0.00,28.9,27.9,00.0,37.9,30.7,17.5,0000.9,0012.56,0042.65,0004.65
2022-06-14 11:41:00,,0819.5,5.00,0.00,28.9,27.9,00.0,37.9,30.7,17.5,0001.6,0012.67,0042.80,0004.61
2022-06-14 11:42:00,,0819.6,4.99,0.00,28.9,27.9,00.0,37.9,30.7,17.5,0001.3,0012.72,0042.16,0004.60
2022-06-14 11:43:00,,0819.7,4.99,0.00,28.8,27.9,00.0,37.9,30.6,17.5,0003.5,0012.76,0041.72,0004.59
2022-06-14 11:44:00,,0819.6,5.00,0.00,28.8,27.9,00.0,37.9,30.6,17.5,0000.7,0012.82,0041.28,0004.58
2022-06-14 11:45:00,,0819.5,4.99,0.00,28.8,27.8,00.0,37.9,30.6,17.5,0000.8,0012.85,0042.30,0004.58
2022-06-14 11:46:00,,0819.4,5.01,0.00,28.8,27.8,00.0,37.9,30.6,17.5,0003.3,0012.93,0042.28,0004.59
2022-06-14 11:47:00,,0819.3,5.01,0.00,28.8,27.8,00.0,37.9,30.5,17.6,0003.9,0012.88,0043.31,0004.59
2022-06-14 11:48:00,,0819.3,4.99,0.00,28.8,27.7,00.0,37.8,30.5,17.7,0003.8,0012.81,0043.35,0004.55
2022-06-14 11:49:00,,0819.3,5.00,0.00,28.8,27.7,00.0,37.8,30.5,17.7,0003.6,0012.76,0042.31,0004.52
2022-06-14 11:50:00,,0819.4,5.00,0.00,28.7,27.7,00.0,37.8,30.5,17.7,0004.0,0012.60,0040.63,0004.52
2022-06-14 11:51:00,,0819.5,5.00,0.00,28.7,27.7,00.0,37.8,30.5,17.8,0004.0,0012.55,0039.05,0004.52
2022-06-14 11:52:00,,0819.5,5.00,0.00,28.7,27.7,00.0,37.8,30.5,17.8,0004.3,0012.48,0037.60,0004.53
2022-06-14 11:53:00,,0819.5,5.00,0.00,28.7,27.7,00.0,37.8,30.5,17.8,0004.5,0012.29,0036.39,0004.50
2022-06-14 11:54:00,,0819.5,5.01,0.00,28.7,27.6,00.0,37.8,30.5,17.8,0004.2,0012.10,0036.16,0004.48
2022-06-14 11:55:00,,0819.5,5.00,0.00,28.7,27.6,00.0,37.8,30.4,17.8,0003.6,0011.91,0035.74,0004.46
2022-06-14 11:56:00,,0819.4,5.00,0.00,28.7,27.6,00.0,37.7,30.4,17.9,0003.5,0011.82,0035.02,0004.44
2022-06-14 11:57:00,,0819.4,4.99,0.00,28.7,27.6,00.0,37.7,30.4,17.9,0003.5,0011.69,0034.54,0004.42
2022-06-14 11:58:00,,0819.4,5.00,0.00,28.6,27.6,00.0,37.7,30.4,18.0,0003.3,0011.59,0034.98,0004.41
2022-06-14 11:59:00,,0819.3,5.00,0.00,28.6,27.5,00.0,37.7,30.4,18.1,0001.9,0011.60,0034.93,0004.42
